Probability
0 0 0 0 0 0 0 0 0 0 0 0 0 0 0 0 0 0 0 0 0 0 0 3 6 3 6 0 0 3 3 6 3 0 0 0 0 0 0 0 0 0 0
0 0 0 0 0 0 0 0 3 0 0 0 0 0 0 0 0 0 0 0 0 0 0 3 3 6 6 3 0 3 0 3 3 0 0 0 0 0 0 0 0 0 0
0 0 0 0 0 3 0 0 3 0 0 0 0 0 0 0 0 0 0 0 0 0 0 3 3 0 6 3 3 0 0 0 3 3 0 0 0 0 0 0 0 0 0
0 0 0 0 0 0 0 3 0 0 0 0 0 0 0 0 0 0 0 0 0 0 0 0 0 0 3 0 0 0 0 0 0 0 0 0 0 0 0 0 0 0 0
0 0 0 0 0 0 0 0 0 0 0 0 0 0 0 0 0 0 0 0 0 0 0 0 0 0 0 0 0 0 0 6 0 0 0 0 0 0 0 0 0 0 0
0 0 0 0 0 0 0 0 0 0 0 0 0 0 0 0 0 0 0 0 0 0 0 0 0 0 0 0 0 0 0 6 3 0 0 0 0 0 0 0 0 0 0
0 0 0 0 0 0 0 0 0 0 0 0 0 0 0 0 0 0 0 0 0 0 0 0 0 0 0 0 0 0 0 6 3 0 0 0 0 0 0 0 0 0 0
0 0 0 0 0 0 0 0 0 0 0 0 0 0 0 0 0 0 0 0 0 0 0 0 0 0 0 0 0 0 0 0 3 0 0 0 0 0 0 0 0 0 0
0 0 0 0 0 0 0 0 0 0 0 0 0 0 0 0 0 0 0 0 0 0 0 0 0 0 0 0 0 0 0 0 0 0 0 0 0 0 0 0 0 0 0
0 0 0 0 0 0 0 0 0 0 0 0 0 0 0 0 0 0 0 0 0 0 0 0 0 0 0 0 0 0 0 0 0 0 0 3 3 0 0 0 0 0 0
0 0 0 0 0 0 0 0 0 0 0 0 0 0 0 0 0 0 0 0 0 0 0 0 0 0 0 0 0 0 0 0 0 0 0 0 0 3 3 0 0 0 0
0 0 0 0 0 0 0 0 0 0 0 0 0 0 0 0 0 0 0 0 0 0 0 0 0 0 0 0 0 0 0 0 0 0 0 0 0 0 3 0 0 0 0
0 0 0 0 0 0 0 0 0 0 0 0 0 0 0 0 0 0 0 0 0 0 0 0 0 0 0 0 0 0 0 0 0 0 0 0 0 0 0 0 0 0 0
0 0 0 0 0 0 0 0 0 0 0 0 0 0 0 0 0 0 0 0 0 0 0 0 0 0 0 0 0 0 0 0 0 0 0 0 0 0 0 0 0 0 0
0 0 0 0 0 0 0 0 0 0 0 0 0 0 0 0 0 0 0 0 0 0 0 0 0 0 0 0 0 0 0 0 0 0 0 0 0 0 0 0 0 0 0
0 0 0 0 0 0 0 0 0 0 0 0 0 0 0 0 0 0 0 0 0 0 0 0 0 0 0 0 0 0 0 0 0 0 0 0 0 0 0 0 0 0 0
0 0 0 0 0 0 0 0 0 0 0 0 0 0 0 0 0 0 0 0 0 0 0 0 0 0 0 0 0 0 0 0 0 0 0 0 0 0 0 0 0 0 0
0 0 0 0 0 0 0 0 0 0 0 0 0 0 0 0 0 0 0 0 0 0 0 0 0 0 0 0 0 0 0 0 0 0 0 0 0 0 0 0 0 0 0
0 0 0 0 0 0 0 0 0 0 0 0 0 0 0 0 0 0 0 0 0 0 0 0 0 0 0 0 0 0 0 0 0 0 0 0 0 0 0 0 0 0 0
0 0 0 0 0 0 0 0 0 0 0 0 0 0 0 0 0 0 0 0 0 0 0 0 0 0 0 0 0 0 0 0 0 0 0 0 0 0 0 0 0 0 0
0 0 0 0 0 0 0 0 0 0 0 0 0 0 0 0 0 0 0 0 0 0 0 0 0 0 0 0 0 0 0 0 0 0 0 0 0 0 0 0 0 0 0
0 0 0 0 0 0 0 0 0 0 0 0 0 0 0 0 0 0 0 0 0 0 0 0 0 0 0 0 0 0 0 0 0 0 0 0 0 0 0 0 0 0 0
0 0 0 0 0 0 0 0 0 0 0 0 0 0 0 0 0 0 0 0 0 0 0 0 0 0 0 0 0 0 0 0 0 0 0 0 0 0 0 0 0 0 0
0 0 0 0 0 0 0 0 0 0 0 0 0 0 0 0 0 0 0 0 0 0 0 0 0 0 0 0 0 0 0 0 0 0 0 0 0 0 0 0 0 0 0
0 0 0 0 0 0 0 0 0 0 0 0 0 0 0 0 0 0 0 0 0 0 0 0 0 0 0 0 0 0 0 0 0 0 0 0 0 0 0 0 0 0 0
0 0 0 0 0 0 0 0 0 0 0 0 0 0 0 0 0 0 0 0 0 0 0 0 0 0 0 0 0 0 0 0 0 0 0 0 0 0 0 0 0 0 0
Height
5787 5789 5791 5793 5796 5798 5800 5802 5805 5808 5810 5813 5815 5817 5820 5822 5824 5826 5828 5829 5831 5832 5834 5835 5836 5837 5838 5839 5840 5840 5841 5842 5842 5842 5843 5843 5843 5843 5843 5843 5843 5843 5842
5780 5782 5784 5787 5789 5791 5793 5796 5798 5801 5804 5807 5809 5811 5814 5816 5818 5820 5822 5823 5825 5827 5828 5829 5831 5832 5833 5834 5835 5835 5836 5836 5837 5837 5837 5838 5838 5838 5838 5838 5838 5837 5837
5773 5775 5777 5780 5782 5785 5787 5789 5792 5794 5797 5800 5802 5804 5807 5809 5811 5813 5815 5817 5819 5820 5822 5823 5825 5826 5827 5828 5829 5829 5830 5830 5831 5831 5831 5832 5832 5832 5832 5832 5832 5831 5831
5765 5767 5770 5772 5775 5777 5779 5782 5784 5787 5790 5792 5795 5797 5799 5802 5804 5806 5808 5810 5811 5813 5815 5816 5818 5819 5820 5821 5822 5823 5823 5824 5824 5825 5825 5825 5826 5826 5826 5826 5826 5825 5824
5757 5759 5762 5765 5767 5769 5772 5774 5777 5779 5782 5784 5787 5789 5792 5794 5796 5798 5800 5802 5804 5805 5807 5808 5810 5811 5813 5814 5815 5815 5816 5817 5817 5818 5818 5818 5818 5819 5819 5819 5819 5818 5817
5749 5752 5754 5756 5759 5761 5764 5766 5768 5771 5774 5776 5778 5781 5783 5785 5787 5789 5791 5793 5795 5796 5798 5800 5801 5803 5804 5805 5807 5807 5808 5809 5809 5810 5810 5810 5811 5811 5811 5811 5811 5810 5810
5741 5743 5745 5748 5750 5753 5755 5757 5760 5762 5765 5767 5769 5772 5774 5776 5778 5780 5782 5783 5785 5787 5788 5790 5791 5793 5795 5796 5798 5799 5799 5800 5801 5801 5802 5802 5802 5803 5803 5803 5803 5802 5801
5731 5733 5736 5738 5741 5744 5746 5748 5750 5752 5755 5757 5759 5762 5764 5767 5768 5770 5772 5773 5775 5777 5778 5780 5781 5783 5785 5786 5788 5789 5790 5791 5792 5792 5793 5793 5794 5794 5794 5794 5794 5793 5792
5722 5724 5727 5729 5731 5734 5736 5739 5741 5743 5745 5747 5749 5751 5754 5756 5758 5761 5762 5763 5765 5767 5768 5770 5771 5773 5774 5776 5777 5779 5780 5781 5782 5783 5783 5784 5784 5784 5784 5784 5784 5784 5783
5713 5715 5718 5720 5723 5725 5727 5729 5731 5733 5735 5737 5739 5741 5743 5745 5747 5750 5752 5754 5755 5757 5758 5759 5761 5762 5763 5765 5767 5768 5769 5770 5771 5772 5773 5774 5774 5774 5774 5774 5774 5773 5773
5705 5707 5709 5711 5713 5715 5717 5719 5721 5723 5725 5727 5729 5730 5732 5734 5736 5738 5741 5743 5745 5746 5748 5749 5750 5751 5752 5753 5756 5757 5759 5760 5761 5762 5762 5762 5762 5763 5763 5763 5763 5763 5762
5696 5698 5700 5702 5704 5706 5707 5709 5711 5713 5715 5717 5718 5720 5721 5723 5725 5727 5729 5731 5733 5735 5736 5738 5739 5740 5741 5742 5744 5746 5748 5749 5750 5751 5751 5751 5751 5751 5751 5752 5752 5751 5751
5687 5689 5691 5693 5694 5695 5697 5699 5701 5703 5704 5706 5708 5709 5711 5712 5714 5716 5717 5719 5721 5723 5725 5727 5728 5729 5730 5732 5733 5735 5736 5738 5738 5739 5740 5740 5740 5740 5740 5740 5740 5739 5739
5678 5680 5682 5683 5684 5685 5687 5689 5691 5692 5694 5696 5697 5698 5700 5701 5703 5704 5706 5708 5709 5712 5714 5715 5716 5718 5719 5721 5722 5723 5725 5726 5727 5728 5728 5728 5728 5728 5728 5728 5728 5728 5727
5669 5671 5672 5673 5674 5675 5677 5678 5680 5682 5683 5684 5686 5687 5689 5690 5691 5692 5694 5696 5698 5700 5702 5704 5705 5706 5707 5708 5710 5711 5713 5714 5715 5715 5716 5716 5716 5716 5716 5716 5716 5715 5715
5659 5660 5662 5663 5664 5665 5666 5668 5669 5671 5672 5673 5674 5675 5677 5678 5679 5680 5682 5683 5685 5687 5689 5692 5693 5694 5695 5696 5698 5699 5700 5701 5702 5703 5703 5703 5703 5703 5703 5703 5703 5702 5702
5650 5651 5652 5653 5654 5655 5656 5657 5658 5660 5661 5662 5663 5664 5665 5665 5667 5668 5669 5671 5673 5675 5677 5679 5680 5682 5683 5684 5685 5686 5688 5689 5690 5690 5691 5691 5691 5690 5690 5690 5689 5689 5688
5640 5641 5642 5643 5644 5644 5645 5646 5647 5648 5649 5650 5651 5652 5653 5654 5655 5656 5658 5659 5660 5662 5664 5666 5667 5668 5670 5671 5672 5673 5675 5676 5677 5677 5678 5678 5677 5678 5677 5677 5676 5676 5675
5631 5631 5632 5632 5633 5633 5634 5635 5636 5637 5638 5639 5640 5641 5642 5643 5644 5645 5645 5647 5648 5649 5650 5652 5654 5655 5657 5658 5659 5660 5661 5662 5663 5664 5664 5664 5664 5664 5664 5663 5662 5661 5660
5621 5621 5621 5622 5622 5623 5623 5624 5624 5626 5626 5628 5629 5629 5630 5631 5632 5633 5634 5635 5636 5637 5637 5638 5640 5641 5643 5644 5645 5646 5648 5649 5649 5650 5650 5651 5650 5650 5649 5649 5648 5647 5646
5610 5611 5611 5611 5611 5612 5612 5613 5613 5614 5615 5616 5617 5618 5619 5619 5620 5620 5621 5622 5623 5624 5625 5625 5627 5628 5629 5630 5631 5632 5633 5634 5635 5636 5636 5636 5636 5635 5634 5633 5632 5631 5630
5600 5600 5600 5600 5600 5601 5601 5601 5601 5602 5603 5604 5605 5606 5607 5608 5608 5608 5609 5610 5610 5611 5612 5613 5614 5614 5615 5616 5616 5617 5618 5619 5621 5622 5621 5622 5620 5620 5618 5617 5616 5614 5613
5589 5589 5589 5589 5590 5590 5590 5589 5590 5590 5592 5593 5594 5594 5595 5596 5596 5597 5597 5597 5597 5598 5599 5599 5600 5601 5601 5601 5602 5602 5603 5604 5605 5605 5605 5606 5604 5604 5602 5601 5599 5598 5597
5579 5579 5579 5579 5579 5579 5579 5578 5579 5579 5580 5581 5582 5582 5583 5583 5584 5584 5584 5584 5585 5585 5585 5586 5587 5587 5587 5586 5587 5587 5587 5588 5589 5589 5588 5589 5589 5588 5586 5585 5584 5582 5581
5568 5568 5568 5568 5568 5568 5568 5568 5568 5568 5569 5569 5570 5570 5570 5570 5570 5571 5571 5571 5572 5572 5571 5572 5572 5573 5572 5572 5572 5572 5572 5572 5573 5574 5573 5573 5573 5572 5571 5571 5568 5566 5565
5557 5557 5557 5557 5557 5557 5556 5556 5556 5557 5557 5558 5558 5557 5557 5557 5557 5557 5557 5558 5558 5559 5558 5558 5559 5559 5558 5558 5557 5557 5557 5557 5557 5559 5558 5557 5557 5556 5556 5556 5554 5551 5549
Wind_Speed
31 31 32 32 32 31 32 31 31 31 30 30 30 29 28 28 28 27 27 26 25 25 24 24 23 23 23 22 22 22 22 22 22 22 22 22 22 22 22 22 22 22 22
32 33 33 32 32 32 32 33 33 32 32 32 31 31 30 30 30 29 29 29 28 28 27 27 26 25 25 25 24 24 24 24 24 24 24 24 24 24 24 24 24 24 25
32 33 34 34 33 33 33 34 34 34 34 34 33 33 32 33 32 32 31 31 31 30 30 29 29 28 28 28 27 27 27 27 27 26 26 26 26 26 26 26 26 26 27
34 34 35 36 35 34 34 34 35 36 35 35 35 34 34 34 34 34 34 34 33 33 33 32 32 31 31 30 30 30 30 30 29 29 29 29 29 29 29 28 28 29 29
35 36 36 37 37 37 36 36 36 38 37 38 37 36 36 36 36 36 36 36 36 36 36 36 35 34 33 33 32 32 32 31 31 31 31 31 32 31 31 31 31 31 31
36 36 37 37 38 38 39 39 38 39 39 39 39 38 38 38 38 39 38 38 38 38 38 38 37 36 36 35 35 35 34 34 34 34 34 33 33 33 33 33 33 33 34
36 37 37 37 38 38 38 39 39 40 41 41 40 40 40 40 40 40 39 39 39 39 40 39 39 39 39 38 38 37 37 37 37 36 36 35 35 35 36 36 35 35 35
37 37 37 38 38 38 38 39 40 40 41 41 41 40 40 40 41 41 41 41 41 41 40 40 40 41 41 40 40 40 40 40 40 39 39 38 38 38 38 37 38 38 38
37 37 37 37 37 38 38 38 39 39 41 42 42 42 42 41 41 40 41 41 41 41 41 42 42 42 42 43 42 42 43 42 42 41 40 40 40 40 40 41 41 41 40
36 36 36 36 37 38 39 39 39 39 40 41 42 43 43 43 42 42 41 41 42 41 41 41 42 42 42 43 43 43 43 43 43 42 41 42 42 42 43 42 43 43 43
34 35 36 37 37 38 39 39 39 40 40 40 41 42 43 43 43 43 43 43 42 42 42 42 42 42 43 43 43 44 45 45 44 44 44 43 44 45 45 45 45 44 44
35 35 36 36 37 38 39 39 39 40 41 41 41 41 43 43 43 43 44 45 44 43 43 44 44 44 44 44 44 45 45 45 45 45 45 45 45 46 47 46 47 46 46
35 36 37 37 37 38 39 39 39 40 40 41 41 41 42 42 42 43 44 44 45 45 45 45 45 45 44 45 45 45 46 46 46 46 47 46 47 47 47 47 47 47 47
36 36 37 37 37 37 38 40 40 41 41 42 43 43 42 42 43 43 43 44 45 46 46 46 46 46 46 46 46 46 47 47 46 47 48 48 48 47 47 48 48 48 48
36 36 37 37 37 38 38 39 40 41 42 42 43 44 44 44 44 45 45 45 46 45 45 46 46 46 46 47 46 46 47 48 48 48 49 49 48 48 48 49 48 48 49
35 35 36 37 38 39 39 40 40 41 42 43 43 43 45 45 45 45 45 46 46 45 45 45 46 46 46 47 47 48 48 48 48 49 50 50 49 48 49 49 49 49 49
35 36 36 37 37 38 39 40 41 42 42 43 44 44 45 45 45 45 45 45 45 45 44 44 45 46 47 47 48 48 48 50 51 51 50 50 50 49 49 49 49 49 49
36 36 37 39 39 39 40 41 41 41 42 43 43 43 44 44 44 45 45 45 45 45 45 45 46 47 47 47 47 48 49 49 50 50 49 49 49 49 49 49 49 50 51
36 37 38 39 39 39 40 41 42 42 42 42 42 42 43 43 44 44 44 44 44 45 45 46 47 47 47 47 47 48 49 49 49 49 49 49 50 50 50 51 52 52 52
36 37 38 39 39 39 40 41 42 42 42 42 43 43 43 43 44 44 45 46 45 45 45 46 47 47 48 48 49 49 50 50 50 50 51 52 52 52 53 53 54 55 55
36 36 37 37 38 38 39 40 41 41 42 42 43 43 44 44 44 45 45 46 47 47 47 47 47 48 49 49 49 50 50 51 52 51 52 52 53 53 54 54 55 55 55
35 36 37 37 37 37 38 40 40 40 41 41 41 42 43 43 44 45 46 46 47 48 49 49 48 48 49 49 50 51 52 53 52 53 53 53 54 55 56 56 56 56 57
36 36 37 38 38 38 39 39 40 41 41 41 41 41 43 44 45 46 46 46 47 48 49 49 49 49 49 50 51 51 52 53 53 54 55 55 56 56 56 55 55 56 56
36 36 37 37 38 39 39 39 40 41 42 42 42 42 43 44 45 46 46 46 46 47 47 48 49 49 50 51 52 52 52 54 55 55 55 55 54 54 54 54 54 55 55
38 38 38 38 39 39 40 40 40 40 41 42 42 43 43 44 45 46 46 47 47 47 47 48 49 49 50 52 52 52 52 53 54 53 53 53 52 52 52 53 53 54 55
39 39 39 39 40 40 41 41 41 41 41 42 43 43 44 44 45 46 47 48 48 48 49 49 50 51 52 52 52 51 51 51 51 50 50 51 51 52 52 52 53 54 55
Wind_Direction
247 244 243 244 244 246 244 241 241 240 240 240 241 242 243 243 243 245 246 247 249 250 251 252 253 255 256 257 259 260 261 264 266 267 268 270 272 274 276 278 280 283 285
247 246 244 244 245 246 246 243 240 240 240 241 243 243 244 244 245 247 248 248 250 251 251 253 254 256 257 258 260 261 263 265 267 268 268 270 272 274 276 277 279 282 284
248 248 246 244 245 245 246 244 241 240 241 241 243 243 244 245 245 247 249 250 251 252 252 254 256 257 258 259 261 262 264 265 266 268 268 269 272 274 275 277 279 281 283
248 249 247 246 245 244 245 245 243 242 243 243 243 245 245 246 247 247 249 251 252 253 254 255 257 258 259 259 261 262 263 265 267 268 269 269 271 273 275 276 278 280 282
250 249 249 248 248 248 247 246 244 243 244 245 246 248 248 248 249 249 250 251 253 254 255 257 258 258 259 259 260 261 262 263 266 268 270 270 270 272 274 276 278 280 282
250 251 250 249 249 249 249 248 247 245 245 246 248 250 250 250 251 251 252 252 253 254 255 256 257 257 258 259 259 260 261 262 265 268 270 270 270 271 272 275 277 279 281
251 251 250 250 249 249 250 249 248 248 248 249 251 252 253 253 252 252 253 253 254 255 255 255 257 257 258 259 259 260 261 262 264 267 268 269 270 271 272 274 276 278 280
251 251 251 250 249 250 250 249 250 250 250 250 252 253 254 254 254 253 254 254 254 255 256 257 258 258 258 258 259 260 261 263 265 266 267 268 271 272 272 273 275 277 278
252 252 252 251 250 250 250 250 251 251 251 252 253 255 256 255 255 256 255 254 255 255 257 258 259 260 259 258 258 260 260 261 263 265 267 268 270 271 271 273 274 276 278
251 252 252 252 251 251 252 252 252 252 253 254 254 256 257 256 255 255 254 254 254 255 258 259 260 260 259 259 258 258 259 260 263 264 266 268 268 270 272 273 275 276 278
251 252 252 252 253 253 253 254 254 254 254 255 256 256 256 257 256 255 254 254 256 257 258 258 258 259 259 259 258 258 259 262 264 264 264 266 269 271 272 273 273 275 277
253 254 255 255 255 255 255 255 255 254 254 255 257 257 256 257 257 256 256 256 256 257 257 258 258 259 260 260 259 260 261 263 265 264 265 268 270 271 272 273 274 276 276
255 255 255 255 256 257 255 255 255 255 254 255 257 258 258 258 258 257 257 257 257 257 258 259 259 260 261 261 260 261 263 264 266 266 267 268 270 272 272 273 275 275 276
254 255 255 256 258 258 257 257 256 255 255 256 257 257 257 258 259 258 257 258 258 257 257 258 259 260 260 260 260 261 262 264 265 266 267 268 270 271 271 272 274 275 275
254 256 257 258 258 259 259 259 258 258 258 258 259 258 258 259 259 259 258 259 259 259 258 258 259 259 259 260 260 260 262 263 265 265 267 268 269 271 272 273 275 274 275
257 257 258 260 260 260 260 259 258 259 260 261 261 261 260 260 260 260 260 260 260 260 260 259 260 260 260 261 261 261 262 263 264 266 267 268 269 271 272 273 275 275 276
260 259 259 260 260 261 261 261 260 261 262 263 262 261 261 260 259 261 261 261 262 261 261 261 261 260 260 260 261 262 262 263 264 266 267 268 269 272 272 273 274 276 276
260 260 259 260 260 261 262 261 261 262 263 264 263 262 262 261 261 263 262 262 262 261 262 262 262 262 262 262 263 263 263 264 265 266 267 268 270 271 272 274 275 276 276
262 261 262 261 261 262 261 261 261 262 263 262 262 263 262 261 262 263 263 263 263 263 263 263 263 263 263 262 263 263 263 264 265 266 268 269 271 272 274 274 275 276 276
263 263 263 263 262 262 263 262 262 262 261 262 262 263 262 263 263 263 263 263 263 264 265 265 264 264 264 265 264 264 264 265 266 267 269 272 273 274 274 275 276 276 277
265 265 265 264 263 263 263 263 262 261 262 263 264 264 264 264 264 264 263 263 264 265 266 266 265 265 265 265 265 265 265 265 266 268 271 273 274 275 276 277 277 276 277
266 267 266 265 265 264 265 265 264 263 264 265 265 265 265 265 266 265 265 265 266 266 267 268 267 266 265 265 265 266 266 267 268 269 271 272 274 275 275 276 276 277 278
268 268 267 265 266 266 268 268 267 265 265 266 266 266 267 267 267 266 266 267 267 267 268 268 269 269 268 267 267 267 268 268 269 270 271 273 275 275 275 275 276 277 278
269 269 269 266 266 267 268 268 266 266 265 266 266 267 267 267 266 266 267 267 268 268 268 268 269 269 269 269 270 269 270 270 271 271 271 273 274 274 275 275 276 277 278
269 270 270 269 268 268 268 268 268 268 267 267 267 267 268 267 266 266 266 266 267 267 268 268 269 269 269 270 271 271 271 272 272 272 273 273 273 274 275 276 277 277 278
269 269 270 271 270 269 268 269 270 270 269 268 268 268 268 269 267 266 266 267 268 268 268 268 269 270 271 271 271 271 272 272 273 273 272 273 274 276 276 277 277 278 278